Home   Weather   Windsor   Past weeks

Flag for Canada Past Weather in Windsor, Ontario, Canada — Yesterday and Last 2 Weeks

Now
25 °F

Passing clouds.


Feels Like: 14 °F
Forecast: 21 / 28 °F
Wind: 12 mph from West

Location: Windsor Weather Station

Current Time: Dec 10, 2016 at 6:10:37 am

Latest Report: Dec 10, 2016 at 5:00 am


Visibility: 15 mi

Pressure: 30.44 "Hg

Humidity: 80%

Dew Point: 19 °F

Location of WindsorLocation

Past Weather in Windsor — Graph

°F

Windsor Temperature Yesterday

Maximum temperature yesterday: 32 °F (at 12:00 pm)
Minimum temperature yesterday: 25 °F (at 1:00 am)
Average temperature yesterday: 28 °F

High & Low Weather Summary for the Past Weeks

 TemperatureHumidityPressure
High57 °F (Nov 30, 1:00 pm)100% (Nov 27, 7:00 am)30.44 "Hg (Nov 27, 7:00 am)
Low23 °F (Dec 10, 1:00 am)47% (Dec 9, 1:00 pm)29.41 "Hg (Nov 29, 12:49 am)
Average38 °F80%30.01 "Hg
* Reported Nov 25 5:00 am — Dec 10 5:00 am, Windsor, Weather by CustomWeather, © 2016

Note: Actual official high and low records may vary slightly from our data, if they occured in-between our weather recording intervals... More about our weather records

Advertising

Windsor Weather History for the Previous 24 Hours

Scroll right to see more
 ConditionsComfort  
Time TempWeatherWind HumidityBarometerVisibility
5:00 am
Sat, Dec 10
25 °FPassing clouds.12 mph80%30.44 "Hg15 mi
4:00 am25 °FLight snow. Passing clouds.12 mph80%30.44 "Hg12 mi
3:00 am23 °FLight snow. Mostly cloudy.9 mph93%30.44 "Hg6 mi
2:00 am23 °FLight snow. Overcast.12 mph86%30.43 "Hg12 mi
1:00 am23 °FLight snow. Low clouds.13 mph93%30.43 "Hg1 mi
12:00 am25 °FLight snow. Overcast.9 mph86%30.43 "Hg7 mi
11:00 pm
Fri, Dec 9
25 °FLight snow. Overcast.9 mph86%30.43 "Hg15 mi
10:00 pm27 °FOvercast.12 mph69%30.43 "Hg15 mi
9:00 pm27 °FOvercast.15 mph69%30.43 "Hg15 mi
8:00 pm28 °FOvercast.15 mph59%30.43 "Hg15 mi
7:00 pm28 °FPassing clouds.12 mph64%30.42 "Hg15 mi
6:00 pm28 °FLight snow. Overcast.12 mph74%30.42 "Hg8 mi
5:00 pm30 °FLow clouds.9 mph55%30.41 "Hg15 mi
4:00 pm30 °FBroken clouds.12 mph51%30.40 "Hg15 mi
3:00 pm32 °FBroken clouds.14 mph55%30.38 "Hg15 mi
2:47 pm32 °FBroken clouds.17 mph51%30.38 "Hg15 mi
2:00 pm32 °FSnow flurries. Partly sunny.14 mph51%30.38 "Hg15 mi
1:00 pm32 °FPartly sunny.15 mph47%30.38 "Hg15 mi
12:00 pm32 °FPartly sunny.12 mph55%30.39 "Hg15 mi
11:00 am30 °FBroken clouds.14 mph75%30.41 "Hg15 mi
10:00 am30 °FPartly sunny.13 mph69%30.40 "Hg15 mi
9:00 am28 °FPartly sunny.9 mph80%30.37 "Hg15 mi
8:00 am27 °FPartly sunny.8 mph86%30.36 "Hg15 mi
7:00 am25 °FPassing clouds.9 mph93%30.34 "Hg15 mi
6:00 am27 °FPassing clouds.12 mph86%30.33 "Hg15 mi
Weather by CustomWeather, © 2016

See weather overviewHow to use our weather pages